Total_Precipitation_Accumulation
0.14 0.14 0.12 0.10 0.06 0.05 0.06 0.07 0.19 0.39 0.55 0.72 0.89 0.99 1.00 1.07 0.97 0.79 0.67 0.58 0.49 0.41 0.37 0.34 0.31 0.28 0.26 0.27 0.25 0.22 0.21 0.20 0.19 0.18 0.17 0.16 0.15 0.14 0.12 0.11 0.09 0.07 0.06 0.04
0.09 0.09 0.11 0.11 0.10 0.11 0.14 0.21 0.35 0.54 0.77 1.03 1.10 1.10 1.12 1.15 1.05 0.88 0.71 0.58 0.55 0.52 0.48 0.42 0.36 0.31 0.28 0.26 0.25 0.23 0.19 0.18 0.17 0.16 0.15 0.13 0.11 0.09 0.08 0.06 0.05 0.03 0.02 0.01
0.10 0.09 0.14 0.24 0.20 0.22 0.26 0.32 0.43 0.61 0.79 0.95 1.03 1.03 1.07 1.13 1.16 1.06 0.86 0.76 0.75 0.76 0.72 0.62 0.52 0.43 0.38 0.34 0.29 0.25 0.24 0.24 0.22 0.18 0.15 0.11 0.07 0.06 0.04 0.03 0.03 0.03 0.02 0.02
0.08 0.14 0.26 0.31 0.17 0.21 0.28 0.33 0.40 0.45 0.58 0.71 0.79 0.83 0.90 0.99 1.06 1.05 0.98 0.98 1.01 0.95 0.86 0.76 0.65 0.56 0.48 0.42 0.37 0.34 0.31 0.26 0.20 0.14 0.09 0.07 0.05 0.05 0.04 0.03 0.03 0.03 0.02 0.03
0.10 0.21 0.34 0.33 0.18 0.16 0.30 0.38 0.37 0.39 0.42 0.44 0.45 0.50 0.66 0.80 0.83 0.84 0.90 0.94 0.93 0.87 0.81 0.74 0.63 0.54 0.46 0.40 0.34 0.28 0.22 0.16 0.11 0.08 0.06 0.06 0.06 0.05 0.04 0.04 0.03 0.03 0.03 0.04
0.13 0.22 0.37 0.36 0.14 0.09 0.25 0.50 0.43 0.38 0.39 0.41 0.47 0.47 0.44 0.50 0.56 0.62 0.65 0.68 0.72 0.71 0.66 0.61 0.52 0.40 0.34 0.28 0.23 0.17 0.11 0.07 0.05 0.04 0.04 0.04 0.04 0.04 0.03 0.03 0.04 0.04 0.03 0.05
0.20 0.29 0.36 0.14 0.06 0.17 0.45 0.61 0.55 0.49 0.44 0.43 0.44 0.40 0.32 0.33 0.37 0.42 0.46 0.51 0.55 0.57 0.53 0.44 0.33 0.25 0.22 0.18 0.14 0.10 0.06 0.05 0.04 0.03 0.03 0.03 0.04 0.04 0.04 0.05 0.06 0.06 0.06 0.08
0.27 0.37 0.40 0.13 0.09 0.26 0.36 0.37 0.43 0.42 0.37 0.30 0.21 0.18 0.22 0.23 0.24 0.24 0.28 0.36 0.39 0.36 0.29 0.23 0.18 0.16 0.15 0.12 0.09 0.06 0.06 0.06 0.05 0.03 0.03 0.03 0.05 0.06 0.05 0.06 0.07 0.07 0.08 0.09
0.26 0.35 0.28 0.11 0.12 0.17 0.19 0.26 0.26 0.24 0.22 0.15 0.09 0.10 0.12 0.14 0.16 0.18 0.19 0.22 0.22 0.18 0.14 0.13 0.13 0.13 0.12 0.10 0.07 0.07 0.07 0.07 0.04 0.02 0.03 0.03 0.03 0.05 0.05 0.07 0.07 0.06 0.07 0.08
0.09 0.19 0.15 0.10 0.08 0.10 0.13 0.17 0.16 0.18 0.22 0.14 0.07 0.06 0.08 0.09 0.10 0.11 0.11 0.12 0.12 0.11 0.10 0.11 0.10 0.10 0.09 0.07 0.07 0.08 0.09 0.07 0.05 0.04 0.05 0.04 0.03 0.02 0.04 0.05 0.05 0.06 0.07 0.07
0.05 0.10 0.12 0.12 0.09 0.06 0.08 0.10 0.12 0.17 0.24 0.20 0.10 0.08 0.07 0.09 0.10 0.10 0.10 0.11 0.11 0.11 0.11 0.08 0.07 0.06 0.05 0.05 0.07 0.09 0.08 0.06 0.06 0.06 0.06 0.06 0.07 0.04 0.03 0.03 0.01 0.02 0.03 0.04
0.10 0.11 0.14 0.14 0.10 0.06 0.12 0.17 0.20 0.25 0.30 0.22 0.13 0.09 0.08 0.09 0.09 0.10 0.10 0.10 0.10 0.09 0.07 0.05 0.03 0.03 0.03 0.03 0.04 0.06 0.07 0.05 0.04 0.05 0.05 0.06 0.10 0.10 0.04 0.01 0.01 0.01 0.01 0.02
0.06 0.05 0.08 0.10 0.11 0.15 0.21 0.22 0.27 0.32 0.27 0.16 0.12 0.11 0.12 0.12 0.10 0.08 0.07 0.07 0.07 0.05 0.04 0.02 0.01 0.01 0.01 0.01 0.01 0.03 0.04 0.03 0.03 0.03 0.05 0.06 0.08 0.12 0.15 0.08 0.02 0.01 0.01 0.02
0.13 0.15 0.20 0.24 0.25 0.25 0.23 0.20 0.22 0.22 0.18 0.14 0.13 0.13 0.11 0.09 0.07 0.06 0.05 0.05 0.04 0.02 0.02 0.01 0.01 0.01 0.00 0.00 0.00 0.01 0.01 0.02 0.02 0.03 0.04 0.04 0.05 0.07 0.10 0.15 0.14 0.11 0.05 0.03
0.21 0.23 0.26 0.24 0.22 0.21 0.18 0.16 0.16 0.17 0.15 0.15 0.13 0.10 0.08 0.07 0.06 0.04 0.03 0.01 0.01 0.01 0.01 0.00 0.00 0.00 0.00 0.00 0.00 0.01 0.02 0.03 0.02 0.02 0.02 0.02 0.03 0.04 0.06 0.08 0.12 0.15 0.14 0.08
0.16 0.15 0.14 0.14 0.15 0.16 0.16 0.16 0.16 0.17 0.15 0.13 0.11 0.07 0.05 0.04 0.03 0.01 0.01 0.01 0.02 0.02 0.01 0.00 0.00 0.00 0.00 0.00 0.00 0.01 0.02 0.02 0.01 0.01 0.01 0.01 0.01 0.02 0.03 0.06 0.09 0.12 0.10 0.08
0.11 0.11 0.11 0.10 0.11 0.12 0.12 0.12 0.11 0.10 0.10 0.09 0.06 0.03 0.02 0.01 0.01 0.01 0.00 0.00 0.01 0.01 0.00 0.00 0.00 0.00 0.00 0.00 0.00 0.00 0.00 0.01 0.00 0.00 0.00 0.00 0.00 0.01 0.02 0.03 0.06 0.08 0.06 0.06
0.12 0.10 0.09 0.07 0.07 0.06 0.07 0.07 0.06 0.05 0.05 0.03 0.01 0.01 0.01 0.01 0.01 0.00 0.00 0.00 0.00 0.00 0.00 0.00 0.00 0.00 0.00 0.00 0.00 0.00 0.00 0.00 0.00 0.00 0.00 0.00 0.00 0.00 0.00 0.02 0.03 0.05 0.06 0.06
0.10 0.06 0.04 0.03 0.03 0.03 0.03 0.04 0.03 0.02 0.01 0.01 0.01 0.01 0.01 0.00 0.00 0.00 0.00 0.00 0.00 0.00 0.00 0.00 0.00 0.00 0.00 0.00 0.00 0.00 0.00 0.00 0.00 0.00 0.00 0.00 0.00 0.00 0.00 0.01 0.02 0.03 0.04 0.05
0.06 0.02 0.01 0.01 0.01 0.02 0.02 0.01 0.01 0.01 0.00 0.00 0.00 0.00 0.00 0.00 0.00 0.00 0.00 0.00 0.00 0.00 0.00 0.00 0.00 0.00 0.00 0.00 0.00 0.00 0.00 0.00 0.00 0.00 0.00 0.00 0.00 0.00 0.00 0.00 0.01 0.02 0.03 0.04
0.02 0.01 0.01 0.01 0.01 0.01 0.00 0.00 0.00 0.00 0.00 0.00 0.00 0.00 0.00 0.00 0.00 0.00 0.00 0.00 0.00 0.00 0.00 0.00 0.00 0.00 0.00 0.00 0.00 0.00 0.00 0.00 0.00 0.00 0.00 0.00 0.00 0.00 0.01 0.01 0.01 0.01 0.02 0.03
0.02 0.01 0.01 0.00 0.00 0.00 0.00 0.00 0.00 0.00 0.00 0.00 0.00 0.00 0.00 0.00 0.00 0.00 0.00 0.00 0.00 0.00 0.00 0.00 0.00 0.00 0.00 0.00 0.00 0.00 0.00 0.00 0.00 0.00 0.00 0.00 0.00 0.00 0.00 0.00 0.00 0.00 0.01 0.02
0.03 0.01 0.01 0.00 0.00 0.00 0.00 0.00 0.00 0.00 0.00 0.00 0.00 0.00 0.00 0.00 0.00 0.00 0.00 0.00 0.00 0.00 0.00 0.00 0.00 0.00 0.00 0.00 0.00 0.00 0.00 0.00 0.00 0.00 0.00 0.00 0.00 0.00 0.00 0.00 0.00 0.00 0.00 0.01
0.04 0.02 0.01 0.01 0.00 0.00 0.00 0.00 0.00 0.00 0.00 0.00 0.00 0.00 0.00 0.00 0.00 0.00 0.00 0.00 0.00 0.00 0.00 0.00 0.00 0.00 0.00 0.00 0.00 0.00 0.00 0.00 0.00 0.00 0.00 0.00 0.00 0.00 0.00 0.00 0.00 0.00 0.00 0.00
0.05 0.02 0.01 0.01 0.01 0.00 0.00 0.00 0.00 0.00 0.00 0.00 0.00 0.00 0.00 0.00 0.00 0.00 0.00 0.00 0.00 0.00 0.00 0.00 0.00 0.00 0.00 0.00 0.00 0.00 0.00 0.00 0.00 0.00 0.00 0.00 0.00 0.00 0.00 0.00 0.00 0.00 0.00 0.00
0.10 0.05 0.03 0.02 0.01 0.00 0.00 0.00 0.00 0.00 0.00 0.00 0.00 0.00 0.00 0.00 0.00 0.00 0.00 0.00 0.00 0.00 0.00 0.00 0.00 0.00 0.00 0.00 0.00 0.00 0.00 0.00 0.00 0.00 0.00 0.00 0.00 0.00 0.00 0.00 0.00 0.00 0.00 0.00
0.24 0.15 0.10 0.07 0.03 0.00 0.00 0.00 0.00 0.00 0.00 0.00 0.00 0.00 0.00 0.00 0.00 0.00 0.00 0.00 0.00 0.00 0.00 0.00 0.00 0.00 0.00 0.00 0.00 0.00 0.00 0.00 0.00 0.00 0.00 0.00 0.00 0.00 0.00 0.00 0.00 0.00 0.00 0.00